www.pogodaiklimat.ru

Погода и климат >> Архив погоды >> Россия >> Хабаровский край >> Удинск


ПОГОДА в Удинске

  • Прогноз погоды в Удинске
  • Монитор погоды в Удинске

АРХИВ ПОГОДЫ в Удинске

Время (UTC), дата Ветер
(напр.,м/с)
 
Видим.   Явления Облачность Т
(С)
Тd
(С)
f
(%)
Тe
(С)
Тes
(С)
Комфортность P
(гПа)
Po
(гПа)
Тmin
(С)
Tmax
(С)
R
(мм)
R24
(мм)
S
(см)
00 19.06 СЗ 1 50 км 10/3 600 м
[Sc Ac As Ci ing]
+10.4 +3.9 64 +10 +15 1006.7 1004.9
03 19.06 СЗ 3 50 км 10/4 600 м
[Sc diur, vesp Ac trans Ci ing]
+14.6 +6.3 57 +14 +18 1006.6 1004.8
06 19.06 С 4 50 км 10/6 600 м
[Sc Ac As Cs]
+11.6 +7.0 73 +10 +11 1007.6 1005.8
09 19.06 СЗ 2 20 км {ливн. осадки} 10/8 600 м
[Sc Ac As Ci ing]
+11.3 +7.4 77 +10 +10 1009.0 1007.2 +15.1 0.4
12 19.06 СЗ 3 20 км {ливн. осадки} 10/8 600 м
[Cb cap Ci ing]
+9.4 +6.5 82 +7 +7 1010.4 1008.6
15 19.06 СЗ 2 20 км 10/8 600 м
[Cb cap Ci ing]
+9.0 +6.4 84 +7 +7 1010.7 1008.9
18 19.06 С 1 20 км 10/10 600 м
[Cb cap]
+8.7 +6.8 88 +8 +8 1010.6 1008.8
21 19.06 СЗ 2 10 км в посл. час ливневой дождь 10/10 600 м
[Cb cap]
+9.1 +7.6 90 +7 +7 1011.7 1009.8 +8.2 0.3
00 20.06 СЗ 2 20 км {ливн. осадки} 10/8 600 м
[Cb cap Ac As Ci ing]
+10.8 +8.7 87 +9 +11 1012.2 1010.4
03 20.06 С 2 20 км в посл. час ливневой дождь 10/9 600 м
[Cb cap Ac As]
+11.8 +9.4 85 +11 +11 1012.2 1010.4
06 20.06 СВ 1 20 км {ливн. осадки} 10/8 600 м
[Cb cap Ac As Ci ing]
+12.9 +9.5 80 +13 +14 1012.7 1010.9
09 20.06 штиль 0 20 км 10/8 600 м
[Sc Ac As Ci ing]
+12.6 +9.6 82 +12 +12 1012.9 1011.1 +13.3 0.3
12 20.06 ЮЗ 1 50 км 6/3 600 м
[Sc Ac lent Ci ing]
+10.4 +9.5 94 +10 +10 1013.2 1011.4
15 20.06 Ю 1 50 км 5/3 600 м
[Sc Ci ing]
+6.0 +5.6 97 +5 +5 1013.5 1011.6
18 20.06 В 3 50 км {туман} 6/3 600 м
[Sc Ac trans Ci fib]
+14.4 +9.9 74 +14 +14 1013.2 1011.4
21 20.06 штиль 0 500 м туман ?/? +8.1 +7.6 97 +7 +7 1013.5 1011.6 +4.3
00 21.06 В 3 50 км {туман} 6/3 600 м
[Sc Ac trans Ci fib]
+14.4 +9.9 74 +14 +19 1013.2 1011.4
03 21.06 В 3 50 км 6/3 600 м
[Cu med, cong Ci fib]
+18.3 +10.4 60 +19 +28 1012.3 1010.5
09 21.06 В 2 50 км 3/1 600 м
[Sc diur, vesp Ci fib]
+20.4 +10.6 53 +23 +24 комфорт 1010.7 1008.9 +21.2
12 21.06 Ю 1 50 км 4/0
[Ac lent Ci fib]
+12.5 +11.0 91 +12 +12 1011.7 1009.9
15 21.06 ЮЗ 1 50 км 3/0
[Ac lent Ci fib]
+7.6 +7.0 96 +7 +7 1012.4 1010.6
18 21.06 ЮЗ 1 50 км 4/3 600 м
[Sc Ci fib]
+4.7 +4.2 97 +3 +3 1012.5 1010.7
21 21.06 СВ 1 50 км 4/0
[Ac As Cc]
+11.5 +9.2 86 +11 +14 1013.0 1011.2 +4.7
00 22.06 СВ 1 50 км 8/1 600 м
[Cu hum Ac trans Ci ing]
+16.7 +11.5 71 +18 +25 1012.4 1010.6
03 22.06 СВ 1 50 км 9/6 600 м
[Sc Ac As Ci fib]
+20.2 +12.8 62 +23 +28 комфорт 1011.6 1009.8
06 22.06 В 3 50 км 9/6 600 м
[Sc diur, vesp Ac trans Ci fib]
+22.9 +10.6 46 +25 +27 комфорт 1010.9 1009.1
09 22.06 С 3 50 км 10/6 600 м
[Cb cap Ac As Ci ing]
+15.7 +11.8 78 +15 +15 1012.2 1010.4 +23.5
12 22.06 СЗ 3 10 км слаб. ливневой дождь 10/8 600 м
[Cb cap Ac As Ci ing]
+11.3 +10.3 94 +9 +9 1014.1 1012.3
15 22.06 СЗ 2 10 км {ливн. осадки} 10/10 600 м
[Cb cap]
+10.0 +8.9 93 +8 +8 1014.2 1012.4
18 22.06 З 2 10 км слаб. ливневой дождь 10/10 600 м
[Cb cap]
+8.7 +8.1 96 +7 +7 1014.2 1012.4
21 22.06 З 2 10 км в посл. час ливневой дождь 10/10 600 м
[Cb cap]
+8.9 +8.0 94 +7 +7 1014.6 1012.8 +8.7 16
00 23.06 З 1 10 км {ливн. осадки} 10/10 600 м
[St]
+9.7 +8.6 93 +9 +9 1014.6 1012.8
03 23.06 СЗ 1 10 км 10/10 600 м
[St]
+12.0 +9.9 87 +12 +12 1014.4 1012.5
06 23.06 С 1 10 км 10/10 600 м
[St]
+13.4 +10.8 84 +14 +14 1013.4 1011.6
09 23.06 СВ 1 20 км 10/10 600 м
[Sc]
+14.3 +11.7 84 +15 +15 1013.1 1011.3 +14.5
12 23.06 штиль 0 10 км 10/10 600 м
[Cb cap]
+12.9 +12.0 94 +12 +12 1013.1 1011.3
15 23.06 В 2 10 км 10/8 600 м
[Cb cap Ci ing]
+12.8 +11.2 90 +12 +12 1012.6 1010.8
18 23.06 В 2 10 км 10/10 600 м
[Cb cap]
+11.5 +10.8 95 +10 +10 1012.4 1010.6
21 23.06 В 1 10 км {ливн. осадки} 10/10 600 м
[Cb cap]
+12.1 +11.1 94 +12 +12 1012.4 1010.6 +11.3 0.1
00 24.06 В 3 10 км {ливн. осадки} 10/8 600 м
[Cb cap Ac As]
+14.3 +12.2 87 +13 +14 1012.1 1010.3
03 24.06 В 3 10 км 10/8 600 м
[Sc As op]
+15.8 +12.8 82 +15 +16 1011.8 1010.0
06 24.06 В 2 20 км 10/8 600 м
[Sc Ac As]
+15.5 +12.7 83 +15 +16 1011.3 1009.5
09 24.06 В 2 20 км 10/9 600 м
[Sc Ac As]
+15.6 +13.1 85 +15 +16 1010.8 1009.0 +15.9 0.3
21 24.06 З 1 10 км {ливн. осадки} 10/10 600 м
[St]
+13.3 +12.6 96 +13 +13 1003.3 1001.6 +13.3 19
00 25.06 СЗ 4 10 км слаб. ливневой дождь {морось} 10/10 600 м
[Cb cap]
+12.4 +11.6 95 +10 +10 1003.1 1001.3 +12.4
09 25.06 СЗ 4
{11}
10 км в посл. час морось 10/10 600 м
[St]
+8.0 +6.8 92 +5 +5 1007.8 1005.9 +14.0 8

 

Местоположение метеостанции Удинск (Хабаровский край, Россия): широта 52.92 долгота 138.80 высота над уровнем моря 15 м.

В архиве по умолчанию представлена погода в Удинске за последнюю неделю. Архивные данные за месяц целиком и за предыдущие месяцы, начиная с января 2011 года, Вы можете получить, выбрав интересующий диапазон дат из раскрывающегося списка и нажав кнопку "Ввод!".


*Определитесь, кто Вы:
робот инопланетянин человек

Внимание! Время в таблицах - всемирное. Для получения местного времени необходимо прибавить поправку, которая равна 10 ч.

Смотрите также архив погоды в соседних городах и на ближайших метеорологических станциях:

Погода в Богородском (Хабаровский край, Россия) (124 км)
Погода в Николаевск-на-Амуре (Хабаровский край, Россия) (130 км)
Погода в Литке (Хабаровский край, Россия) (152 км)
Погода в Мариинском (Хабаровский край, Россия) (159 км)
Погода в Джаоре (Хабаровский край, Россия) (164 км)
Погода в Им. Полины Осипенко (Хабаровский край, Россия) (165 км)
Погода в Байдукове (Хабаровский край, Россия) (179 км)
Погода в Циммермановка (Хабаровский край, Россия) (179 км)
Погода в Бурукане (Хабаровский край, Россия) (188 км)
Погода в Погибях (Сахалинская область, Россия) (205 км)

Пояснения к столбцам:

Ветер - указаны скорость ветра в м/с - средняя за 10 мин, порывы в срок и между сроками (в фигурных скобках) и направление, откуда дует ветер: С - северный, СВ - северо-восточный, В - восточный, ЮВ - юго-восточный, Ю - южный, ЮЗ - юго-западный, З - западный, СЗ - северо-западный.
Видимость - горизонтальная дальность видимости в метрах или километрах. При видимости от 1 до 10 км при отсутствии осадков обычно наблюдается дымка, при ухудшении видимости до 1 км и менее - туман. В сухую погоду видимость может ухудшаться дымом, пылью или мглою.
Явления - указаны атмосферные явления, наблюдавшиеся в срок или в последний час перед сроком; фигурными скобками обозначены явления, наблюдавшиеся между сроками (за 1-3 часа до срока); квадратными скобками обозначены град или гололедные отложения с указанием их диаметра в мм.
Облачность - указаны через наклонную черту общая и нижняя облачность в баллах и высота нижней границы облаков в метрах; квадратными скобками обозначены формы облаков: Ci - перистые, Cs - перисто-слоистые, Cc - перисто-кучевые, Ac - высококучевые, As - высокослоистые, Sc - слоисто-кучевые, Ns - слоисто-дождевые, Cu - кучевые, Cb - кучево-дождевые. Подробнее классификацию облаков см. в Атласе облаков (PDF).
T - Температура воздуха - температура, измеренная на высоте 2 м над землей.
Td - Температура точки росы - температура, при понижении до которой содержащийся в воздухе водяной пар достигнет насыщения.
f - Относительная влажность воздуха - влажноcть воздуха, измеренная на высоте 2 м над землей.
Te - Эффективная температура - температура, которую ощущает одетый по сезону человек в тени. Характеристика душности погоды. При расчете учитывается влияние влажности воздуха и скорости ветра на теплоощущения человека.
Tes - Эффективная температура на солнце - температура, которую ощущает человек, с поправкой на солнечный нагрев. Характеристика знойности погоды. Зависит от высоты солнца над горизонтом, облачности и скорости ветра. Ночью, в пасмурную погоду, а также при ветре 12 м/с и более поправка равна нулю.
P - Атмосферное давление - приведенное к уровню моря атмосферное давление.
Po - Атмосферное давление - измеренное на уровне метеостанции атмосферное давление.
Tmin - Минимальная температура - минимум температуры воздуха на высоте 2 м над землей.
Tmax - Максимальная температура - максимум температуры воздуха на высоте 2 м над землей.
R - Количество осадков - Количество выпавших осадков за период времени, мм. При наведении курсора мыши на число - период времени, за который выпало указанное количество осадков.
R24 - Количество осадков - Количество выпавших осадков за 24 часа, мм.
S - Снежный покров - Высота снежного покрова, см. При наведении курсора мыши на число - состояние снежного покрова и степень покрытия местности в баллах.